星链-3599 (STARLINK-3599 )

导读 | 星芒AI

STARLINK-3599 是 SpaceX Starlink 项目中的一颗低轨通信卫星,属于第三代星链卫星群。该卫星旨在为全球用户提供高速、低延迟的互联网服务,特别关注偏远和网络基础设施薄弱的地区。它运行在约 550 公里的轨道高度,采用先进的推进和通信技术,以提高性能和可持续性。STARLINK-3599 的发射和运行有助于扩大 Starlink 网络的覆盖范围,提升全球互联网接入能力。

基本信息
目录编号:
51814
目录名称:
STARLINK-3599
国际标识:
2022-017AY
轨道中心:
EARTH
卫星名称:
星链-3599
卫星全名:
星链-3599 (STARLINK-3599 )
卫星状态:
在轨 (已飞行1395 天)
发射日期:
2022-02-25 UTC
国别 :
美国 (US)
星等 :
--
轨道信息
数据来源 国际轨道数据
星历时间: 2025-12-20T11:23:06+0800
21小时前
查看轨道信息
半长轴: 6917.896km
偏心率: 0.0001457
轨道倾角: 53.220°
近地点辐角 89.674°
升交点赤经 326.229°
平近点角 270.442°
近地点: 538.751km
远地点: 540.767km
周期: 95.438分钟
每日圈数: 15.088351
详细信息
固有亮度:
5
最大亮度:
2.5
卫星平台:
Starlink v1.5
覆盖范围:
全球
运营商:
太空探索技术公司
运营商所在国:
美国
制造商(研发单位):
太空探索技术公司
制造商所在国:
美国
使用方式:
暂无
卫星简介
星链(Starlink)计划是由太空探索技术公司(SpaceX)提出的一个巨型低轨卫星互联网星座项目,计划在2019年至2024年间在太空搭建由约1.2万颗卫星组成的“星链”网络,其中1584颗将部署在地球上空550千米处的近地轨道,并从2020年开始工作。该卫星仍在工作。
2D轨道图
3D轨道图
轨道高度分析图
轨道倾角分析图
轨道综合分析图
查看轨道综合分析图